TimeCST,TemperatureF,Dew PointF,Humidity,Sea Level PressureIn,VisibilityMPH,Wind Direction,Wind SpeedMPH,Gust SpeedMPH,PrecipitationIn,Events,Conditions,WindDirDegrees,DateUTC
12:15 AM,24.8,20.7,84,29.95,10.0,NW,9.2,-,N/A,,Mostly Cloudy,310,2013-02-27 06:15:00
12:35 AM,25.2,20.8,84,29.95,10.0,NW,11.5,-,N/A,,Mostly Cloudy,320,2013-02-27 06:35:00
12:55 AM,25.0,20.7,84,29.95,10.0,NW,10.4,-,N/A,,Overcast,310,2013-02-27 06:55:00
1:15 AM,24.8,20.3,83,29.96,10.0,NW,8.1,-,N/A,,Mostly Cloudy,310,2013-02-27 07:15:00
1:35 AM,23.7,20.1,86,29.96,10.0,NW,10.4,-,N/A,,Scattered Clouds,310,2013-02-27 07:35:00
1:55 AM,23.9,19.9,85,29.97,10.0,WNW,13.8,-,N/A,,Clear,300,2013-02-27 07:55:00
2:15 AM,23.5,19.4,84,29.97,10.0,WNW,13.8,-,N/A,,Clear,300,2013-02-27 08:15:00
2:35 AM,23.4,19.2,84,29.97,10.0,WNW,13.8,-,N/A,,Clear,300,2013-02-27 08:35:00
2:55 AM,24.8,20.3,83,29.97,10.0,WNW,11.5,-,N/A,,Clear,300,2013-02-27 08:55:00
3:15 AM,24.1,19.0,81,29.97,10.0,NW,11.5,-,N/A,,Scattered Clouds,320,2013-02-27 09:15:00
3:35 AM,23.5,18.1,80,29.97,10.0,NNW,10.4,-,N/A,,Scattered Clouds,340,2013-02-27 09:35:00
3:55 AM,27.1,18.1,69,29.97,10.0,NNW,15.0,-,N/A,,Mostly Cloudy,340,2013-02-27 09:55:00
4:15 AM,27.0,18.5,70,29.97,10.0,NNW,10.4,-,N/A,,Overcast,330,2013-02-27 10:15:00
4:35 AM,27.5,19.2,71,29.98,10.0,NNW,11.5,-,N/A,,Overcast,330,2013-02-27 10:35:00
4:55 AM,28.0,19.4,70,29.99,10.0,North,13.8,-,N/A,,Mostly Cloudy,350,2013-02-27 10:55:00
5:15 AM,28.4,19.9,71,30.00,10.0,North,16.1,-,N/A,,Mostly Cloudy,350,2013-02-27 11:15:00
5:35 AM,28.4,19.9,71,30.01,10.0,North,16.1,-,N/A,,Mostly Cloudy,350,2013-02-27 11:35:00
6:15 AM,28.2,19.8,71,30.02,10.0,NNW,19.6,-,N/A,,Clear,340,2013-02-27 12:15:00
6:35 AM,28.0,22.1,78,30.03,10.0,North,17.3,-,N/A,,Scattered Clouds,350,2013-02-27 12:35:00
6:55 AM,28.4,23.0,80,30.04,10.0,NNW,17.3,-,N/A,,Scattered Clouds,340,2013-02-27 12:55:00
7:15 AM,28.4,23.9,83,30.04,10.0,NNW,17.3,-,N/A,,Scattered Clouds,340,2013-02-27 13:15:00
7:35 AM,28.0,23.7,84,30.05,10.0,NNW,13.8,-,N/A,,Scattered Clouds,340,2013-02-27 13:35:00
7:55 AM,28.4,24.3,84,30.06,10.0,North,15.0,-,N/A,,Scattered Clouds,350,2013-02-27 13:55:00
8:15 AM,30.0,24.8,81,30.06,10.0,North,18.4,28.8,N/A,,Scattered Clouds,350,2013-02-27 14:15:00
8:35 AM,30.9,25.7,81,30.07,10.0,North,23.0,26.5,N/A,,Mostly Cloudy,350,2013-02-27 14:35:00
8:55 AM,31.5,26.6,82,30.08,7.0,North,21.9,27.6,N/A,,Overcast,350,2013-02-27 14:55:00
9:15 AM,31.8,27.5,84,30.10,7.0,North,24.2,28.8,N/A,,Overcast,350,2013-02-27 15:15:00
9:35 AM,31.6,28.0,87,30.11,5.0,North,19.6,-,N/A,,Overcast,350,2013-02-27 15:35:00
9:55 AM,31.6,28.4,88,30.11,4.0,North,15.0,-,N/A,,Overcast,350,2013-02-27 15:55:00
10:15 AM,31.8,28.8,88,30.12,4.0,North,13.8,-,N/A,,Overcast,360,2013-02-27 16:15:00
10:35 AM,31.8,28.9,89,30.12,4.0,North,16.1,-,N/A,,Overcast,350,2013-02-27 16:35:00
10:55 AM,32.0,28.9,88,30.13,5.0,North,16.1,-,N/A,,Overcast,350,2013-02-27 16:55:00
11:15 AM,32.0,29.3,90,30.13,5.0,North,18.4,-,N/A,,Overcast,350,2013-02-27 17:15:00
11:35 AM,32.9,28.6,84,30.14,10.0,North,19.6,-,N/A,,Overcast,350,2013-02-27 17:35:00
11:55 AM,32.9,27.5,81,30.14,10.0,NNW,23.0,-,N/A,,Overcast,340,2013-02-27 17:55:00
12:15 PM,33.1,28.0,82,30.14,10.0,NNW,18.4,-,N/A,,Overcast,340,2013-02-27 18:15:00
12:35 PM,33.3,28.0,81,30.14,10.0,NNW,16.1,19.6,N/A,,Overcast,330,2013-02-27 18:35:00
12:55 PM,33.3,27.9,81,30.14,10.0,NNW,20.7,-,N/A,,Overcast,330,2013-02-27 18:55:00
1:15 PM,33.4,27.5,79,30.14,10.0,NNW,19.6,-,N/A,,Overcast,330,2013-02-27 19:15:00
1:35 PM,33.8,27.9,79,30.14,10.0,NNW,18.4,24.2,N/A,,Overcast,340,2013-02-27 19:35:00
1:55 PM,33.8,27.3,77,30.14,10.0,NNW,23.0,-,N/A,,Overcast,340,2013-02-27 19:55:00
2:15 PM,33.8,27.5,78,30.14,10.0,NNW,18.4,24.2,N/A,,Overcast,340,2013-02-27 20:15:00
2:35 PM,33.8,27.3,77,30.14,10.0,NNW,20.7,-,N/A,,Overcast,340,2013-02-27 20:35:00
2:55 PM,33.8,27.1,77,30.14,10.0,NNW,19.6,-,N/A,,Overcast,340,2013-02-27 20:55:00
3:15 PM,33.8,27.3,77,30.15,10.0,NNW,17.3,-,N/A,,Overcast,330,2013-02-27 21:15:00
3:35 PM,33.8,27.1,77,30.15,10.0,NNW,21.9,-,N/A,,Overcast,330,2013-02-27 21:35:00
3:55 PM,33.4,26.4,75,30.15,10.0,NNW,20.7,-,N/A,,Overcast,330,2013-02-27 21:55:00
4:15 PM,33.4,26.6,76,30.15,10.0,NNW,21.9,-,N/A,,Overcast,330,2013-02-27 22:15:00
4:35 PM,33.1,26.2,76,30.16,10.0,NNW,18.4,-,N/A,,Overcast,340,2013-02-27 22:35:00
4:55 PM,32.9,26.2,76,30.16,10.0,NNW,17.3,-,N/A,,Overcast,330,2013-02-27 22:55:00
5:15 PM,32.5,26.2,78,30.16,10.0,NNW,17.3,-,N/A,,Overcast,330,2013-02-27 23:15:00
5:35 PM,32.5,26.1,77,30.17,10.0,NNW,17.3,-,N/A,,Overcast,330,2013-02-27 23:35:00
5:55 PM,32.4,25.7,76,30.17,10.0,NNW,17.3,-,N/A,,Overcast,330,2013-02-27 23:55:00
6:15 PM,32.2,26.4,79,30.17,10.0,NNW,11.5,-,N/A,,Overcast,330,2013-02-28 00:15:00
6:35 PM,32.2,26.2,79,30.16,10.0,NNW,13.8,-,N/A,,Overcast,330,2013-02-28 00:35:00
6:55 PM,32.0,26.2,79,30.17,10.0,NNW,11.5,-,N/A,,Overcast,330,2013-02-28 00:55:00
7:15 PM,32.0,26.1,79,30.17,10.0,NW,13.8,-,N/A,,Overcast,320,2013-02-28 01:15:00
7:35 PM,32.0,25.5,77,30.18,10.0,NW,16.1,-,N/A,,Overcast,320,2013-02-28 01:35:00
7:55 PM,30.9,23.9,75,30.18,10.0,NNW,11.5,-,N/A,,Scattered Clouds,330,2013-02-28 01:55:00
8:15 PM,28.6,23.0,80,30.17,10.0,NNW,9.2,-,N/A,,Clear,330,2013-02-28 02:15:00
8:35 PM,26.6,22.3,84,30.17,10.0,NW,6.9,-,N/A,,Clear,310,2013-02-28 02:35:00
8:55 PM,26.1,21.9,84,30.17,10.0,WNW,6.9,-,N/A,,Clear,300,2013-02-28 02:55:00
9:15 PM,25.2,21.0,84,30.17,10.0,WNW,9.2,-,N/A,,Clear,290,2013-02-28 03:15:00
9:35 PM,23.7,19.9,85,30.17,10.0,WNW,6.9,-,N/A,,Clear,300,2013-02-28 03:35:00
9:55 PM,23.4,19.9,87,30.17,10.0,WNW,10.4,-,N/A,,Clear,300,2013-02-28 03:55:00
10:35 PM,23.7,20.1,86,30.17,10.0,WNW,9.2,-,N/A,,Clear,300,2013-02-28 04:35:00
10:55 PM,23.0,19.4,86,30.17,10.0,WNW,12.7,-,N/A,,Clear,290,2013-02-28 04:55:00
11:15 PM,23.0,19.4,86,30.17,10.0,WNW,10.4,-,N/A,,Clear,300,2013-02-28 05:15:00
11:35 PM,23.4,19.8,86,30.17,10.0,WNW,11.5,-,N/A,,Clear,290,2013-02-28 05:35:00